STARLINK Y (59944 NORAD) Tracking and Keplerian Element Data

This shows tracking and keplerian element data for the satellite.

Feedback or suggestion? Click here.




ElementValue
Catalog59944
NameSTARLINK Y
Epoch Orbit233
Epoch Day160.16667824
Epoch Year2024
RAAN22.3834
Inclination43.0019
Eccentricity0.0001972
Argument of Perigee279.5578
Mean Anonmoly181.991
Mean Motion15.93621157
Decay Rate-0.01086131
L11 59944U 24106Y 24160.16667824 -.01086131 35704-3 -28985-2 0 9995
L22 59944 43.0019 22.3834 0001972 279.5578 181.9910 15.93621157 2331



Live tracking and technical data element details for STARLINK Y (NORAD 59944). STARLINK Y can be tracked NOW for your location showing map with azimuth and elevation plus other details from your city location.







IsCatalogInMostPopularTable: catalog: 59944, numindb: 16
Update: records affected: 1



GetName: 59944 STARLINK Y

Hit Count: updated at: Tue, 16 Jul 2024 03:58:50 GMT